Location: Sommers-Bausch Observatory
(40.0037°N, 105.2635°W)
Time: 19:35:41
(UTC-07:00)

Daily predictions for brighter satellites

Satellite Brightness Start Highest point End
(mag) Time Altitude Azimuth Time Altitude Azimuth Time Altitude Azimuth
Cosmos 1346 Rocket 3.4 18:07:45 10° NNW 18:11:40 63° W 18:15:30 10° S
Cosmos 44 3.0 18:07:57 10° NNW 18:12:24 75° ENE 18:16:41 10° SE
COSMOS 2428 4.5 18:11:04 10° NNE 18:13:34 13° NE 18:16:02 10° ENE
Meteor 1-25 Rocket 4.2 18:11:02 10° S 18:16:35 68° E 18:22:13 10° NNE
Cosmos 2151 Rocket 3.9 18:15:42 10° SSE 18:19:58 45° E 18:24:18 10° NNE
CENTAUR R/B 3.7 18:13:01 10° NW 18:20:53 66° WSW 18:29:09 10° SSE
Cosmos 1812 2.7 18:17:24 10° N 18:21:16 64° E 18:25:05 10° SSE
Cosmos 1745 Rocket 4.2 18:18:33 10° S 18:24:53 85° W 18:31:12 10° N
Okean 1 Rocket 4.4 18:23:30 10° SE 18:26:44 20° E 18:29:59 10° NE
NOAA 12 4.1 18:24:17 10° SSE 18:29:33 70° ENE 18:34:52 10° N
HJ-1C 4.4 18:27:45 10° SE 18:30:35 26° ENE 18:33:27 10° NNE
Meteor 1-11 Rocket 4.4 18:26:10 10° SSE 18:31:12 32° E 18:36:20 10° NNE
METEOR-M 4.1 18:27:50 10° SSE 18:33:09 74° ENE 18:38:30 10° N
Cosmos 1954 Rocket 4.4 18:28:31 10° S 18:33:21 42° ESE 18:38:15 10° NNE
Cosmos 1386 Rocket 4.4 18:28:53 10° S 18:35:00 88° E 18:41:05 10° N
GEOS 3 Rocket 3.8 18:30:36 10° NE 18:35:43 52° ESE 18:40:52 10° SSW
Cosmos 2360 Rocket 2.7 18:35:30 10° N 18:40:47 39° ENE 18:46:03 10° SE
Cosmos 1980 Rocket 4.5 18:36:32 10° NW 18:41:19 28° WSW 18:46:06 10° SSW
Cosmos 2219 Rocket 4.0 18:41:00 10° NNE 18:43:08 12° NE 18:44:08 12° ENE
Helios 1B rocket 4.0 18:44:10 16° ESE 18:44:10 16° ESE 18:46:21 10° SE
Cosmos 1633 2.9 18:42:32 10° SSE 18:46:03 44° E 18:49:34 10° NNE
Cosmos 1602 4.0 18:42:53 10° SSE 18:46:32 42° E 18:50:14 10° NNE
FREGAT/IRIS 2.6 18:46:25 10° SSE 18:49:30 90° WNW 18:52:36 10° NNW
Cosmos 1025 Rocket 4.3 18:52:13 10° NNE 18:55:30 22° ENE 18:55:30 22° ENE
ALOS 2.2 18:53:27 10° SSE 18:58:04 68° ENE 19:02:43 10° N
Cosmos 1536 Rocket 3.7 18:58:16 10° N 19:02:45 79° W 19:07:13 10° S
Cosmos 1833 4.1 18:57:14 10° SSW 19:02:55 74° ESE 19:08:35 10° NNE
ATLAS 2A CENTAUR R/B 4.0 19:02:53 10° SSW 19:04:43 13° SSE 19:07:24 10° SE
SJ-6B 3.5 19:04:53 10° S 19:08:52 56° W 19:12:46 10° NNW
Cosmos 1818 4.0 19:03:36 10° SW 19:09:00 65° WNW 19:14:28 10° NNE
Cosmos 2333 Rocket 3.8 19:05:38 10° NNE 19:09:02 16° NE 19:09:02 16° NE
BREEZE-M DEB (TANK) 2.7 19:08:03 10° NW 19:10:35 47° NE 19:12:05 32° E
Cosmos 1741 Rocket 4.2 19:08:49 10° S 19:13:46 44° ESE 19:18:33 11° NNE
SL-16 R/B 3.4 19:09:24 10° NW 19:14:45 43° WSW 19:20:04 10° S
Cosmos 1340 2.9 19:12:45 10° NNW 19:16:32 69° W 19:20:17 10° S
Resurs 01 Rocket 1.5 19:12:11 10° SSE 19:16:35 82° ENE 19:21:01 10° N
Cosmos 1023 Rocket 4.3 19:11:54 10° SSW 19:16:58 82° ESE 19:22:07 10° NNE
FengYun 1-2 T 4.2 19:11:58 10° SSE 19:17:27 85° WSW 19:22:58 10° NNW
SL-08 ROCKET BODY 4.5 19:12:03 10° SSE 19:18:02 55° E 19:24:04 10° NNE
TSX-5 4.2 19:16:17 10° SW 19:19:22 46° WNW 19:21:44 16° N
Cosmos 1238 Rocket 2.5 19:19:16 10° NNW 19:22:14 62° W 19:24:54 12° S
Meteor 1-19 Rocket 4.2 19:19:39 10° N 19:25:22 87° W 19:31:07 10° S
Gbstr 26 Del rocket 2.4 19:22:35 10° SW 19:26:22 68° SE 19:26:33 66° ESE
Tiangong 2 1.9 19:23:33 10° W 19:26:28 40° SSW 19:26:33 40° SSW
DELTA 2 R/B (1) 3.7 19:21:41 10° W 19:27:15 68° SSW 19:29:25 37° SE
Intercosmos 24 4.3 19:23:42 10° SSE 19:27:35 53° E 19:32:56 10° NNE
Cosmos 1570 Rocket 4.0 19:22:39 10° N 19:27:47 54° ENE 19:29:15 41° ESE
BREEZE-M DEB (TANK) 4.0 19:23:28 10° WNW 19:29:38 41° SW 19:30:58 26° S
Meteor 1-5 Rocket 4.4 19:25:11 10° S 19:30:59 54° E 19:36:45 10° NNE
Cosmos 2327 Rocket 4.4 19:26:01 10° S 19:32:05 60° E 19:38:16 10° NNE
Cosmos 2322 Rocket 4.1 19:27:41 10° NW 19:32:27 29° WSW 19:37:13 10° SSW
Genesis I 4.3 19:29:13 10° NNW 19:31:56 32° NNE 19:31:56 32° NNE
Cosmos 1300 Rocket 4.3 19:28:56 10° SSW 19:33:14 55° W 19:37:36 10° N
Cosmos 2181 Rocket 4.3 19:27:13 10° NNW 19:33:25 68° W 19:39:40 10° S
Cosmos 1536 2.7 19:30:15 10° S 19:34:15 88° W 19:38:15 10° N
CZ-2D R/B 3.2 19:38:26 61° S 19:39:02 82° WSW 19:42:52 10° NNW
Resurs 1-3 3.9 19:34:47 10° S 19:39:08 68° WSW 19:43:31 10° NNW
Cosmos 2322 3.9 19:39:55 10° NNW 19:45:38 72° WSW 19:49:34 21° S
Cosmos 1140 Rocket 4.2 19:41:42 10° SW 19:46:42 53° WNW 19:51:45 10° N
ATLAS CENTAUR R/B 4.0 19:44:33 10° SSW 19:45:58 16° S 19:45:58 16° S
H-2A R/B 3.8 19:45:20 14° SSW 19:48:12 43° W 19:51:47 10° NNW
Cosmos 2074 Rocket 3.9 19:45:01 10° S 19:51:16 89° W 19:57:35 10° N
Meteor 1-23 Rocket 4.2 19:45:49 10° N 19:51:40 89° WSW 19:55:23 23° S
Cosmos 2184 Rocket 3.9 19:45:43 10° S 19:52:03 89° E 19:58:22 10° N
Cosmos 2208 Rocket 3.9 19:46:42 10° NNW 19:52:12 83° ENE 19:53:07 62° SSE
Helios 1A 3.3 19:58:08 63° W 19:58:08 63° W 20:02:10 10° NNW
COSMOS 2428 2.5 19:53:05 10° NNW 19:58:49 77° ENE 19:59:03 76° E
Meteor 2-4 Rocket 4.1 19:53:40 10° NNW 19:59:10 61° W 20:04:29 10° S
Cosmos 2237 4.2 19:53:35 10° NNW 19:59:20 83° WSW 20:00:38 56° S
Cosmos 2333 4.1 19:56:31 10° NNW 20:02:01 71° NE 20:02:01 71° NE
Cosmos 2237 Rocket 3.7 20:03:06 10° N 20:05:44 23° NNE 20:05:44 23° NNE
Envisat 3.8 20:13:16 41° N 20:13:16 41° N 20:16:32 10° N
Nadezhda 3 Rocket 4.5 20:07:43 10° N 20:12:03 45° NNE 20:12:03 45° NNE
Helios 1B rocket 4.3 20:20:32 28° WSW 20:20:32 28° WSW 20:22:53 10° SW
Cosmos 2285 Rocket 3.9 20:13:04 10° NNW 20:19:32 90° WSW 20:19:32 90° WSW
USA 229 DEB 3.6 20:12:31 10° NNW 20:19:41 75° NE 20:19:44 75° ENE
USA 229 3.7 20:12:37 10° NNW 20:19:47 74° NE 20:19:48 74° ENE
Cosmos 2219 3.6 20:15:35 10° SW 20:21:16 60° WNW 20:23:09 40° N
Cosmos 2360 Rocket 3.9 20:19:49 10° NW 20:24:35 29° WSW 20:28:57 12° SSW
Cosmos 2219 Rocket 3.2 20:22:28 10° NNW 20:25:54 38° N 20:25:54 38° N
Cosmos 2333 Rocket 3.8 20:48:21 10° NNW 20:51:05 29° NNW 20:51:05 29° NNW
